contact:dominique.lefevre@mio.osupytheas.fr, maurice.libes@osupytheas.fr, didier.mallarino@osupytheas.fr
Project:EMSO http://www.emso-fr.org/EMSO-France
Depth: 2436.0 m
Title:EMSO Ligure Ouest : Data MII capteur AQUADOPP
Date,Latitude,Longitude,X_East,Y_North,Z_Up,Amplitude_X,Amplitude_Y,Amplitude_Z,Batterie,SoundSpeed,Heading,Pitch,Roll,Pressure,TIS,Speed,Direction
, degrees North, degrees East, m.s-1, m.s-1,m.s-1, 1, 1, 1, Volt, m.s-1, degree, degree, degree, dbar, degree_C, m.s-1, degree
2021-04-03T00:04:03,42.805,6.029,-0.005,0.0,0.044,105.0,105.0,104.0,13.3,1505.2,327.2,-0.8,1.8,2470.518,13.29,0.005,270.0
2021-04-03T00:07:03,42.805,6.029,0.004,0.005,0.02,106.0,106.0,103.0,13.3,1505.2,326.7,-0.8,1.8,2470.483,13.29,0.006,38.7
2021-04-03T00:10:03,42.805,6.029,-0.003,-0.007,0.015,106.0,105.0,104.0,13.3,1505.2,327.7,-0.7,1.8,2470.444,13.29,0.007,203.2
2021-04-03T00:13:03,42.805,6.029,-0.003,-0.009,-0.007,106.0,104.0,103.0,13.4,1505.2,326.8,-0.8,1.8,2470.425,13.29,0.009,198.4
2021-04-03T00:16:03,42.805,6.029,-0.021,0.01,0.017,105.0,105.0,102.0,13.4,1505.2,325.4,-0.7,1.8,2470.445,13.29,0.023,295.5
2021-04-03T00:19:03,42.805,6.029,-0.026,0.004,-0.009,105.0,106.0,102.0,13.4,1505.2,326.7,-0.8,1.8,2470.476,13.29,0.026,278.7
2021-04-03T00:22:03,42.805,6.029,0.008,-0.002,0.006,106.0,107.0,103.0,13.4,1505.2,327.2,-0.7,1.8,2470.46,13.29,0.008,104.0
2021-04-03T00:25:03,42.805,6.029,-0.019,-0.013,0.029,104.0,106.0,100.0,13.4,1505.2,324.4,-0.8,1.9,2470.466,13.29,0.023,235.6
2021-04-03T00:28:03,42.805,6.029,-0.013,-0.015,-0.003,104.0,105.0,101.0,13.4,1505.2,328.9,-0.8,1.8,2470.441,13.29,0.019,220.9
2021-04-03T00:31:03,42.805,6.029,0.01,-0.006,0.01,105.0,103.0,102.0,13.3,1505.2,326.9,-0.7,1.8,2470.45,13.29,0.011,121.0
2021-04-03T00:34:03,42.805,6.029,-0.012,0.011,-0.006,105.0,104.0,103.0,13.4,1505.2,327.1,-0.8,1.8,2470.44,13.29,0.016,312.5
2021-04-03T00:37:03,42.805,6.029,-0.007,-0.006,-0.002,106.0,105.0,102.0,13.4,1505.2,326.7,-0.7,1.8,2470.458,13.29,0.009,229.4
2021-04-03T00:40:03,42.805,6.029,0.006,0.006,0.027,105.0,106.0,102.0,13.3,1505.2,327.4,-0.8,1.8,2470.44,13.29,0.008,45.0
2021-04-03T00:43:03,42.805,6.029,0.0,-0.014,0.018,105.0,104.0,103.0,13.3,1505.2,326.7,-0.8,1.8,2470.397,13.29,0.014,180.0
2021-04-03T00:46:03,42.805,6.029,-0.016,-0.022,0.005,105.0,105.0,103.0,13.4,1505.2,326.7,-0.8,1.8,2470.474,13.29,0.027,216.0
2021-04-03T00:49:03,42.805,6.029,0.002,0.002,0.034,106.0,105.0,102.0,13.4,1505.2,326.8,-0.7,1.8,2470.44,13.29,0.002,45.0
2021-04-03T00:52:03,42.805,6.029,0.017,0.012,0.002,106.0,104.0,105.0,13.3,1505.2,326.6,-0.7,1.8,2470.434,13.29,0.02,54.8
2021-04-03T00:55:03,42.805,6.029,0.003,-0.013,0.0,105.0,106.0,103.0,13.4,1505.2,327.5,-0.7,1.8,2470.45,13.29,0.013,167.0
2021-04-03T00:58:03,42.805,6.029,-0.004,-0.004,0.022,105.0,104.0,102.0,13.4,1505.2,324.9,-0.8,1.8,2470.426,13.29,0.005,225.0
2021-04-03T01:04:03,42.805,6.029,0.006,-0.007,0.012,106.0,107.0,103.0,13.4,1505.2,325.7,-0.8,1.8,2470.499,13.28,0.009,139.4
2021-04-03T01:07:03,42.805,6.029,0.0,0.006,0.032,105.0,105.0,103.0,13.4,1505.2,327.7,-0.7,1.8,2470.424,13.28,0.006,0.0
2021-04-03T01:10:03,42.805,6.029,0.01,-0.011,0.012,105.0,105.0,103.0,13.3,1505.2,326.0,-0.8,1.8,2470.401,13.28,0.014,137.7
2021-04-03T01:13:03,42.805,6.029,0.013,0.003,0.032,106.0,106.0,103.0,13.4,1505.2,327.2,-0.7,1.8,2470.432,13.28,0.013,77.0
2021-04-03T01:16:03,42.805,6.029,-0.014,-0.02,-0.004,105.0,106.0,104.0,13.4,1505.2,327.5,-0.8,1.8,2470.446,13.28,0.024,215.0
2021-04-03T01:19:03,42.805,6.029,0.0,0.003,0.013,106.0,107.0,104.0,13.4,1505.2,325.5,-0.7,1.8,2470.441,13.28,0.003,0.0
2021-04-03T01:22:03,42.805,6.029,-0.008,-0.01,-0.017,103.0,106.0,105.0,13.3,1505.2,325.4,-0.8,1.8,2470.431,13.28,0.012,218.7
2021-04-03T01:25:03,42.805,6.029,0.007,0.014,0.032,104.0,107.0,102.0,13.4,1505.2,325.8,-0.8,1.8,2470.432,13.28,0.015,26.6
2021-04-03T01:28:03,42.805,6.029,-0.021,-0.022,-0.014,106.0,106.0,102.0,13.4,1505.2,327.2,-0.8,1.8,2470.418,13.28,0.03,223.7
2021-04-03T01:31:03,42.805,6.029,-0.008,0.006,-0.024,105.0,105.0,102.0,13.4,1505.2,326.6,-0.8,1.8,2470.411,13.28,0.01,306.9
2021-04-03T01:34:03,42.805,6.029,0.004,-0.026,-0.009,105.0,104.0,103.0,13.4,1505.2,326.6,-0.7,1.9,2470.409,13.28,0.026,171.3
2021-04-03T01:37:03,42.805,6.029,-0.017,0.005,0.013,106.0,105.0,102.0,13.4,1505.2,326.9,-0.8,1.9,2470.405,13.28,0.017,286.4
2021-04-03T01:40:03,42.805,6.029,-0.006,0.011,0.006,105.0,105.0,102.0,13.3,1505.2,327.3,-0.7,1.8,2470.387,13.28,0.012,331.4
2021-04-03T01:43:03,42.805,6.029,0.017,-0.013,0.0,104.0,105.0,101.0,13.4,1505.2,324.5,-0.8,1.8,2470.403,13.28,0.021,127.4
2021-04-03T01:46:03,42.805,6.029,-0.005,-0.004,0.016,105.0,103.0,101.0,13.4,1505.2,324.5,-0.7,1.8,2470.396,13.28,0.006,231.3
2021-04-03T01:49:03,42.805,6.029,0.001,0.002,0.029,104.0,103.0,101.0,13.3,1505.2,325.2,-0.7,1.8,2470.401,13.28,0.002,26.6
2021-04-03T01:52:03,42.805,6.029,-0.007,0.001,-0.001,105.0,105.0,101.0,13.4,1505.2,325.1,-0.8,1.9,2470.382,13.28,0.007,278.1
2021-04-03T01:55:03,42.805,6.029,0.031,-0.018,0.008,104.0,105.0,102.0,13.4,1505.2,325.9,-0.7,1.8,2470.401,13.28,0.035,120.1
2021-04-03T01:58:03,42.805,6.029,0.003,0.003,0.027,103.0,106.0,102.0,13.4,1505.2,327.7,-0.8,1.8,2470.41,13.28,0.004,45.0
2021-04-03T02:04:03,42.805,6.029,-0.008,-0.003,0.006,105.0,103.0,103.0,13.4,1505.2,325.9,-0.8,1.9,2470.421,13.28,0.008,249.4
2021-04-03T02:07:03,42.805,6.029,0.0,-0.018,-0.008,104.0,105.0,102.0,13.3,1505.2,327.1,-0.7,1.9,2470.438,13.28,0.018,180.0
2021-04-03T02:10:03,42.805,6.029,0.004,-0.02,0.013,105.0,105.0,101.0,13.3,1505.2,327.1,-0.7,1.8,2470.408,13.28,0.02,168.7
2021-04-03T02:13:03,42.805,6.029,0.018,-0.009,0.015,105.0,103.0,101.0,13.4,1505.2,327.0,-0.7,1.8,2470.403,13.28,0.02,116.6
2021-04-03T02:16:03,42.805,6.029,0.014,-0.015,0.037,104.0,105.0,102.0,13.3,1505.2,327.4,-0.8,1.8,2470.419,13.28,0.02,137.0
2021-04-03T02:19:03,42.805,6.029,0.002,-0.015,0.016,105.0,105.0,112.0,13.4,1505.2,327.1,-0.8,1.8,2470.403,13.28,0.015,172.4
2021-04-03T02:22:03,42.805,6.029,0.008,0.0,0.019,104.0,105.0,101.0,13.4,1505.2,327.0,-0.8,1.8,2470.416,13.28,0.008,90.0
2021-04-03T02:25:03,42.805,6.029,0.004,-0.026,-0.007,104.0,103.0,102.0,13.4,1505.2,327.4,-0.7,1.8,2470.404,13.28,0.026,171.3
2021-04-03T02:28:03,42.805,6.029,0.0,0.007,0.017,103.0,104.0,102.0,13.4,1505.2,326.0,-0.8,1.8,2470.452,13.28,0.007,0.0
2021-04-03T02:31:03,42.805,6.029,-0.005,0.003,0.006,103.0,108.0,103.0,13.4,1505.2,327.0,-0.8,1.8,2470.41,13.28,0.005,301.0
2021-04-03T02:34:03,42.805,6.029,0.014,-0.038,0.011,105.0,104.0,103.0,13.3,1505.2,324.5,-0.8,1.8,2470.364,13.28,0.04,159.8
2021-04-03T02:37:03,42.805,6.029,0.006,-0.033,0.001,105.0,108.0,103.0,13.4,1505.2,325.1,-0.7,1.8,2470.407,13.28,0.033,169.7
2021-04-03T02:40:03,42.805,6.029,0.018,-0.027,-0.019,106.0,105.0,104.0,13.4,1505.2,325.9,-0.8,1.8,2470.378,13.28,0.032,146.3
2021-04-03T02:43:03,42.805,6.029,-0.016,0.013,0.011,105.0,106.0,103.0,13.4,1505.2,324.5,-0.8,1.8,2470.372,13.28,0.02,309.1
2021-04-03T02:46:03,42.805,6.029,-0.001,-0.035,0.02,103.0,107.0,103.0,13.4,1505.2,326.3,-0.8,1.8,2470.385,13.28,0.035,181.6
2021-04-03T02:49:03,42.805,6.029,0.008,-0.02,-0.01,106.0,105.0,103.0,13.4,1505.2,325.7,-0.7,1.8,2470.366,13.28,0.021,158.2
2021-04-03T02:52:03,42.805,6.029,0.015,-0.012,0.003,106.0,106.0,103.0,13.4,1505.2,323.8,-0.8,1.8,2470.377,13.28,0.019,128.7
2021-04-03T02:55:03,42.805,6.029,0.01,-0.045,-0.018,106.0,104.0,103.0,13.4,1505.2,325.5,-0.8,1.8,2470.391,13.28,0.046,167.5
2021-04-03T02:58:03,42.805,6.029,-0.003,-0.026,-0.006,106.0,105.0,103.0,13.4,1505.2,324.0,-0.7,1.8,2470.381,13.28,0.026,186.6
2021-04-03T03:04:03,42.805,6.029,-0.028,0.0,0.003,104.0,105.0,103.0,13.4,1505.2,324.0,-0.8,1.8,2470.407,13.28,0.028,270.0
2021-04-03T03:07:03,42.805,6.029,0.01,-0.007,0.005,105.0,105.0,103.0,13.4,1505.2,327.6,-0.8,1.8,2470.389,13.28,0.012,125.0
2021-04-03T03:10:03,42.805,6.029,0.005,-0.015,0.009,108.0,104.0,103.0,13.3,1505.2,328.6,-0.7,1.8,2470.374,13.28,0.015,161.6
2021-04-03T03:13:03,42.805,6.029,0.011,-0.017,0.02,105.0,105.0,103.0,13.4,1505.2,328.0,-0.8,1.8,2470.394,13.28,0.02,147.1
2021-04-03T03:16:03,42.805,6.029,-0.006,-0.006,0.014,105.0,106.0,102.0,13.4,1505.2,325.9,-0.7,1.8,2470.384,13.28,0.008,225.0
2021-04-03T03:19:03,42.805,6.029,0.001,-0.023,0.022,106.0,105.0,103.0,13.4,1505.2,325.6,-0.7,1.8,2470.385,13.28,0.023,177.5
2021-04-03T03:22:03,42.805,6.029,0.01,-0.011,0.002,105.0,105.0,101.0,13.4,1505.2,325.9,-0.8,1.8,2470.382,13.28,0.014,137.7
2021-04-03T03:25:03,42.805,6.029,-0.012,-0.012,-0.007,106.0,104.0,102.0,13.3,1505.2,325.7,-0.8,1.8,2470.373,13.28,0.016,225.0
2021-04-03T03:28:03,42.805,6.029,0.004,-0.019,0.001,108.0,104.0,103.0,13.4,1505.2,327.4,-0.8,1.8,2470.34,13.28,0.019,168.1
2021-04-03T03:31:03,42.805,6.029,0.001,-0.011,0.023,103.0,105.0,103.0,13.4,1505.2,326.9,-0.8,1.8,2470.384,13.28,0.011,174.8
2021-04-03T03:34:03,42.805,6.029,-0.007,-0.018,-0.007,104.0,103.0,102.0,13.4,1505.2,326.7,-0.8,1.8,2470.356,13.28,0.019,201.2
2021-04-03T03:37:03,42.805,6.029,-0.005,-0.02,0.008,106.0,103.0,103.0,13.3,1505.2,327.9,-0.7,1.8,2470.37,13.28,0.02,194.0
2021-04-03T03:40:03,42.805,6.029,0.017,-0.028,0.008,105.0,105.0,101.0,13.4,1505.2,327.5,-0.7,1.8,2470.391,13.28,0.032,148.7
2021-04-03T03:43:03,42.805,6.029,-0.013,-0.004,-0.009,104.0,105.0,102.0,13.4,1505.2,323.4,-0.7,1.8,2470.362,13.28,0.013,252.9
2021-04-03T03:46:03,42.805,6.029,0.003,-0.017,-0.014,103.0,105.0,103.0,13.4,1505.2,328.1,-0.8,1.8,2470.364,13.28,0.017,170.0
2021-04-03T03:49:03,42.805,6.029,0.002,-0.012,0.017,104.0,106.0,103.0,13.4,1505.2,325.0,-0.7,1.9,2470.331,13.28,0.012,170.5
2021-04-03T03:52:03,42.805,6.029,-0.003,-0.024,0.01,106.0,104.0,103.0,13.3,1505.2,327.9,-0.7,1.8,2470.383,13.28,0.024,187.1
2021-04-03T03:55:03,42.805,6.029,-0.008,-0.018,-0.005,108.0,105.0,102.0,13.4,1505.2,325.7,-0.8,1.8,2470.377,13.28,0.019,204.0
2021-04-03T03:58:03,42.805,6.029,0.001,-0.028,-0.006,105.0,105.0,102.0,13.4,1505.2,328.1,-0.8,1.8,2470.368,13.28,0.028,178.0
2021-04-03T04:04:03,42.805,6.029,-0.009,-0.036,0.001,105.0,106.0,105.0,13.4,1505.2,327.4,-0.8,1.9,2470.369,13.28,0.037,194.0
2021-04-03T04:07:03,42.805,6.029,0.007,-0.023,0.018,105.0,104.0,102.0,13.4,1505.2,324.6,-0.8,1.8,2470.387,13.28,0.024,163.1
2021-04-03T04:10:03,42.805,6.029,-0.004,-0.03,-0.003,103.0,106.0,103.0,13.4,1505.2,325.4,-0.8,1.8,2470.361,13.28,0.03,187.6
2021-04-03T04:13:03,42.805,6.029,-0.018,-0.035,-0.02,105.0,104.0,103.0,13.4,1505.2,327.9,-0.7,1.8,2470.362,13.28,0.039,207.2
2021-04-03T04:16:03,42.805,6.029,0.002,-0.006,-0.006,105.0,103.0,102.0,13.4,1505.2,326.4,-0.8,1.8,2470.339,13.28,0.006,161.6
2021-04-03T04:19:03,42.805,6.029,-0.024,-0.013,-0.004,105.0,104.0,103.0,13.4,1505.2,324.3,-0.7,1.8,2470.389,13.28,0.027,241.6
2021-04-03T04:22:03,42.805,6.029,-0.007,-0.005,-0.009,105.0,104.0,103.0,13.4,1505.2,326.9,-0.7,1.8,2470.332,13.28,0.008,234.5
2021-04-03T04:25:03,42.805,6.029,-0.016,-0.005,0.008,105.0,104.0,103.0,13.4,1505.2,324.9,-0.8,1.8,2470.378,13.28,0.016,252.6
2021-04-03T04:28:03,42.805,6.029,-0.009,-0.014,-0.005,104.0,105.0,102.0,13.4,1505.2,327.2,-0.7,1.8,2470.373,13.28,0.016,212.7
2021-04-03T04:31:03,42.805,6.029,-0.015,-0.004,0.01,104.0,104.0,102.0,13.3,1505.2,327.5,-0.7,1.8,2470.315,13.28,0.015,255.1
2021-04-03T04:34:03,42.805,6.029,-0.01,-0.012,0.007,106.0,104.0,103.0,13.3,1505.2,325.6,-0.7,1.8,2470.382,13.28,0.015,219.8
2021-04-03T04:37:03,42.805,6.029,0.012,-0.008,0.005,107.0,103.0,102.0,13.4,1505.2,326.1,-0.7,1.8,2470.331,13.28,0.014,123.7
2021-04-03T04:40:03,42.805,6.029,-0.001,-0.029,0.012,103.0,104.0,103.0,13.4,1505.2,326.7,-0.7,1.8,2470.32,13.28,0.029,182.0
2021-04-03T04:43:03,42.805,6.029,0.013,-0.033,-0.001,105.0,105.0,102.0,13.3,1505.2,325.5,-0.7,1.8,2470.344,13.28,0.035,158.5
2021-04-03T04:46:03,42.805,6.029,-0.017,-0.015,0.009,105.0,104.0,102.0,13.4,1505.2,325.9,-0.7,1.8,2470.371,13.28,0.022,228.6
2021-04-03T04:49:03,42.805,6.029,-0.01,-0.033,-0.001,105.0,105.0,102.0,13.4,1505.2,325.2,-0.7,1.8,2470.351,13.28,0.034,196.9
2021-04-03T04:52:03,42.805,6.029,-0.022,-0.007,-0.027,104.0,103.0,103.0,13.4,1505.2,325.7,-0.8,1.8,2470.351,13.28,0.023,252.4
2021-04-03T04:55:03,42.805,6.029,-0.023,-0.013,0.002,104.0,102.0,102.0,13.4,1505.2,326.7,-0.7,1.8,2470.339,13.28,0.026,240.5
2021-04-03T04:58:03,42.805,6.029,0.009,-0.013,0.005,104.0,105.0,102.0,13.4,1505.2,326.0,-0.7,1.8,2470.337,13.28,0.015,145.3
2021-04-03T05:04:03,42.805,6.029,-0.009,-0.026,0.002,104.0,106.0,101.0,13.4,1505.2,323.9,-0.8,1.8,2470.366,13.28,0.027,199.1
2021-04-03T05:07:03,42.805,6.029,-0.005,-0.026,0.0,104.0,104.0,103.0,13.3,1505.2,323.9,-0.7,1.8,2470.306,13.28,0.026,190.9
2021-04-03T05:10:03,42.805,6.029,-0.023,-0.029,0.013,105.0,105.0,103.0,13.3,1505.2,324.9,-0.7,1.8,2470.333,13.28,0.037,218.4
2021-04-03T05:13:03,42.805,6.029,-0.008,-0.022,-0.012,105.0,104.0,103.0,13.4,1505.2,324.3,-0.7,1.8,2470.308,13.28,0.023,200.0
2021-04-03T05:16:03,42.805,6.029,0.024,-0.007,-0.01,104.0,104.0,102.0,13.4,1505.2,325.3,-0.7,1.8,2470.335,13.28,0.025,106.3
2021-04-03T05:19:03,42.805,6.029,-0.006,-0.016,0.028,104.0,103.0,102.0,13.4,1505.2,324.4,-0.8,1.8,2470.327,13.28,0.017,200.6
2021-04-03T05:22:03,42.805,6.029,-0.004,-0.032,0.022,106.0,104.0,102.0,13.4,1505.2,326.6,-0.8,1.8,2470.321,13.28,0.032,187.1
2021-04-03T05:25:03,42.805,6.029,0.002,-0.033,-0.005,104.0,105.0,103.0,13.4,1505.2,324.2,-0.7,1.9,2470.325,13.28,0.033,176.5
2021-04-03T05:28:03,42.805,6.029,-0.008,-0.037,0.023,106.0,105.0,102.0,13.4,1505.2,327.3,-0.8,1.9,2470.329,13.28,0.037,192.2
2021-04-03T05:31:03,42.805,6.029,0.005,-0.023,0.018,105.0,106.0,103.0,13.4,1505.2,328.7,-0.8,1.8,2470.304,13.28,0.023,167.7
2021-04-03T05:34:03,42.805,6.029,-0.01,-0.034,0.01,106.0,105.0,102.0,13.4,1505.2,328.2,-0.8,1.9,2470.322,13.28,0.035,196.4
2021-04-03T05:37:03,42.805,6.029,-0.003,-0.033,0.02,106.0,106.0,103.0,13.4,1505.2,328.6,-0.8,1.8,2470.308,13.28,0.033,185.2
2021-04-03T05:40:03,42.805,6.029,-0.008,-0.011,-0.009,104.0,103.0,103.0,13.4,1505.2,325.8,-0.7,1.8,2470.311,13.28,0.013,216.0
2021-04-03T05:43:03,42.805,6.029,-0.004,-0.011,0.0,105.0,106.0,104.0,13.4,1505.2,325.0,-0.7,1.8,2470.316,13.28,0.011,200.0
2021-04-03T05:46:03,42.805,6.029,-0.019,-0.022,-0.029,105.0,105.0,103.0,13.4,1505.2,328.5,-0.7,1.8,2470.34,13.28,0.029,220.8
2021-04-03T05:49:03,42.805,6.029,-0.016,-0.031,-0.005,103.0,104.0,102.0,13.4,1505.2,326.8,-0.7,1.8,2470.31,13.28,0.034,207.3
2021-04-03T05:52:03,42.805,6.029,0.004,-0.037,-0.007,104.0,104.0,104.0,13.3,1505.2,325.5,-0.8,1.9,2470.339,13.28,0.037,173.8
2021-04-03T05:55:03,42.805,6.029,-0.014,-0.021,0.007,105.0,106.0,104.0,13.4,1505.2,324.8,-0.8,1.8,2470.302,13.28,0.025,213.7
2021-04-03T05:58:03,42.805,6.029,0.002,-0.006,0.007,104.0,105.0,102.0,13.4,1505.2,328.3,-0.8,1.8,2470.327,13.28,0.006,161.6
2021-04-03T06:04:03,42.805,6.029,-0.007,-0.034,-0.011,105.0,107.0,103.0,13.4,1505.2,327.3,-0.7,1.8,2470.343,13.28,0.034,191.6
2021-04-03T06:07:03,42.805,6.029,0.005,-0.028,-0.005,104.0,107.0,103.0,13.3,1505.2,325.6,-0.8,1.8,2470.312,13.28,0.028,169.9
2021-04-03T06:10:03,42.805,6.029,-0.014,-0.018,-0.032,106.0,104.0,102.0,13.4,1505.2,325.4,-0.8,1.8,2470.301,13.28,0.022,217.9
2021-04-03T06:13:03,42.805,6.029,-0.006,-0.006,-0.017,106.0,105.0,101.0,13.4,1505.2,326.8,-0.7,1.8,2470.352,13.28,0.008,225.0
2021-04-03T06:16:03,42.805,6.029,-0.003,-0.026,-0.04,105.0,104.0,103.0,13.3,1505.2,324.7,-0.8,1.8,2470.302,13.28,0.026,186.6
2021-04-03T06:19:03,42.805,6.029,-0.004,-0.002,0.001,106.0,106.0,101.0,13.3,1505.2,324.9,-0.7,1.8,2470.331,13.28,0.004,243.4
2021-04-03T06:22:03,42.805,6.029,-0.007,-0.024,-0.002,107.0,107.0,103.0,13.4,1505.2,323.9,-0.7,1.8,2470.304,13.28,0.025,196.3
2021-04-03T06:25:03,42.805,6.029,-0.023,-0.009,0.007,108.0,106.0,101.0,13.3,1505.2,326.9,-0.7,1.8,2470.285,13.28,0.024,248.6
2021-04-03T06:28:03,42.805,6.029,-0.001,-0.015,0.03,106.0,107.0,103.0,13.3,1505.2,327.3,-0.8,1.8,2470.319,13.28,0.015,183.8
2021-04-03T06:31:03,42.805,6.029,0.001,-0.016,0.017,107.0,107.0,103.0,13.4,1505.2,325.8,-0.7,1.8,2470.313,13.28,0.016,176.4
2021-04-03T06:34:03,42.805,6.029,0.005,-0.033,0.003,106.0,107.0,105.0,13.4,1505.2,328.3,-0.8,1.8,2470.339,13.28,0.033,171.4
2021-04-03T06:37:03,42.805,6.029,-0.002,-0.05,-0.014,107.0,108.0,104.0,13.4,1505.2,327.2,-0.7,1.8,2470.319,13.28,0.05,182.3
2021-04-03T06:40:03,42.805,6.029,0.008,-0.023,0.047,108.0,108.0,105.0,13.3,1505.2,328.1,-0.8,1.8,2470.326,13.28,0.024,160.8
2021-04-03T06:43:03,42.805,6.029,-0.001,-0.042,-0.007,107.0,106.0,105.0,13.3,1505.2,327.3,-0.7,1.8,2470.3,13.28,0.042,181.4
2021-04-03T06:46:03,42.805,6.029,-0.009,-0.028,-0.008,109.0,107.0,104.0,13.4,1505.2,325.0,-0.7,1.8,2470.286,13.28,0.029,197.8
2021-04-03T06:49:03,42.805,6.029,-0.016,-0.026,-0.007,108.0,109.0,106.0,13.3,1505.2,324.8,-0.7,1.8,2470.311,13.28,0.03,211.6
2021-04-03T06:52:03,42.805,6.029,-0.012,-0.029,0.005,108.0,108.0,105.0,13.4,1505.2,326.4,-0.7,1.8,2470.317,13.28,0.031,202.5
2021-04-03T06:55:03,42.805,6.029,-0.008,-0.028,0.01,107.0,107.0,105.0,13.4,1505.2,325.3,-0.8,1.8,2470.273,13.28,0.029,195.9
2021-04-03T06:58:03,42.805,6.029,0.0,-0.041,-0.015,106.0,108.0,103.0,13.4,1505.2,325.2,-0.8,1.8,2470.307,13.28,0.041,180.0
2021-04-03T07:04:03,42.805,6.029,-0.005,-0.028,-0.011,108.0,107.0,106.0,13.4,1505.2,327.2,-0.8,1.8,2470.354,13.28,0.028,190.1
2021-04-03T07:07:03,42.805,6.029,-0.024,-0.009,-0.007,106.0,108.0,105.0,13.4,1505.2,325.9,-0.7,1.8,2470.307,13.28,0.025,249.4
2021-04-03T07:10:03,42.805,6.029,-0.015,-0.04,0.023,109.0,110.0,104.0,13.3,1505.2,325.6,-0.8,1.9,2470.361,13.28,0.042,200.6
2021-04-03T07:13:03,42.805,6.029,-0.012,-0.012,0.023,108.0,111.0,106.0,13.4,1505.2,324.2,-0.7,1.8,2470.313,13.28,0.016,225.0
2021-04-03T07:16:03,42.805,6.029,-0.017,-0.023,-0.016,108.0,106.0,107.0,13.3,1505.2,323.8,-0.7,1.9,2470.289,13.28,0.028,216.5
2021-04-03T07:19:03,42.805,6.029,-0.023,-0.014,-0.041,109.0,105.0,105.0,13.4,1505.2,326.7,-0.8,1.8,2470.32,13.28,0.026,238.7
2021-04-03T07:22:03,42.805,6.029,-0.018,-0.015,0.0,107.0,106.0,103.0,13.4,1505.2,328.1,-0.7,1.8,2470.324,13.28,0.023,230.2
2021-04-03T07:25:03,42.805,6.029,-0.029,-0.024,-0.014,106.0,106.0,104.0,13.4,1505.2,327.3,-0.7,1.8,2470.336,13.28,0.037,230.4
2021-04-03T07:28:03,42.805,6.029,-0.02,-0.013,-0.005,105.0,107.0,104.0,13.4,1505.2,323.3,-0.8,1.8,2470.299,13.28,0.023,237.0
2021-04-03T07:31:03,42.805,6.029,-0.016,-0.028,0.025,107.0,106.0,104.0,13.4,1505.2,323.3,-0.7,1.8,2470.327,13.29,0.032,209.7
2021-04-03T07:34:03,42.805,6.029,-0.017,-0.033,0.024,106.0,106.0,103.0,13.3,1505.2,323.3,-0.7,1.8,2470.346,13.28,0.037,207.3
2021-04-03T07:37:03,42.805,6.029,-0.015,-0.031,-0.011,108.0,107.0,103.0,13.4,1505.2,323.3,-0.8,1.8,2470.324,13.28,0.034,205.8
2021-04-03T07:40:03,42.805,6.029,0.0,-0.026,-0.003,107.0,106.0,102.0,13.4,1505.2,323.4,-0.8,1.8,2470.321,13.29,0.026,180.0
2021-04-03T07:43:03,42.805,6.029,-0.021,-0.03,0.001,108.0,108.0,104.0,13.4,1505.2,323.9,-0.8,1.8,2470.297,13.29,0.036,215.0
2021-04-03T07:46:03,42.805,6.029,-0.01,-0.002,0.01,107.0,107.0,103.0,13.4,1505.2,328.1,-0.7,1.8,2470.335,13.29,0.01,258.7
2021-04-03T07:49:03,42.805,6.029,-0.017,-0.019,-0.015,108.0,107.0,103.0,13.3,1505.2,327.7,-0.8,1.8,2470.305,13.28,0.025,221.8
2021-04-03T07:52:03,42.805,6.029,-0.031,-0.016,0.001,107.0,106.0,104.0,13.4,1505.2,328.7,-0.7,1.8,2470.301,13.29,0.034,242.7
2021-04-03T07:55:03,42.805,6.029,-0.021,-0.024,0.0,107.0,109.0,104.0,13.4,1505.2,326.4,-0.7,1.8,2470.278,13.28,0.031,221.2
2021-04-03T07:58:03,42.805,6.029,-0.032,-0.03,0.001,108.0,105.0,105.0,13.3,1505.2,325.0,-0.8,1.8,2470.336,13.28,0.043,226.9
2021-04-03T08:04:03,42.805,6.029,-0.016,-0.008,-0.011,106.0,107.0,103.0,13.4,1505.2,323.8,-0.8,1.8,2470.339,13.28,0.017,243.4
2021-04-03T08:07:03,42.805,6.029,-0.033,-0.016,-0.025,105.0,106.0,103.0,13.4,1505.2,324.6,-0.8,1.8,2470.352,13.28,0.036,244.1
2021-04-03T08:10:03,42.805,6.029,-0.053,-0.001,-0.009,107.0,106.0,104.0,13.4,1505.2,325.4,-0.8,1.9,2470.347,13.28,0.053,268.9
2021-04-03T08:13:03,42.805,6.029,-0.018,-0.018,-0.005,107.0,105.0,103.0,13.3,1505.2,323.8,-0.8,1.9,2470.326,13.28,0.025,225.0
2021-04-03T08:16:03,42.805,6.029,-0.023,-0.009,-0.015,107.0,105.0,103.0,13.4,1505.2,327.5,-0.8,1.8,2470.333,13.28,0.024,248.6
2021-04-03T08:19:03,42.805,6.029,-0.03,-0.018,-0.007,107.0,105.0,104.0,13.4,1505.2,326.9,-0.8,1.8,2470.333,13.28,0.034,239.0
2021-04-03T08:22:03,42.805,6.029,-0.028,-0.018,-0.016,104.0,105.0,103.0,13.3,1505.2,327.2,-0.8,1.8,2470.324,13.28,0.033,237.3
2021-04-03T08:25:03,42.805,6.029,-0.014,-0.02,-0.039,104.0,103.0,103.0,13.4,1505.2,327.5,-0.7,1.8,2470.32,13.28,0.024,215.0
2021-04-03T08:28:03,42.805,6.029,-0.035,-0.007,-0.003,103.0,103.0,103.0,13.4,1505.2,327.3,-0.8,1.8,2470.349,13.28,0.035,258.7
2021-04-03T08:31:03,42.805,6.029,-0.025,-0.027,0.004,103.0,104.0,102.0,13.4,1505.2,327.1,-0.7,1.8,2470.365,13.28,0.036,222.8
2021-04-03T08:34:03,42.805,6.029,-0.025,-0.009,-0.014,106.0,109.0,103.0,13.4,1505.2,326.9,-0.8,1.8,2470.35,13.28,0.026,250.2
2021-04-03T08:37:03,42.805,6.029,-0.02,-0.013,-0.018,106.0,105.0,104.0,13.4,1505.2,324.9,-0.8,1.8,2470.31,13.29,0.023,237.0
2021-04-03T08:40:03,42.805,6.029,-0.014,-0.01,0.028,107.0,104.0,103.0,13.4,1505.2,324.9,-0.8,1.8,2470.36,13.29,0.017,234.5
2021-04-03T08:43:03,42.805,6.029,-0.017,-0.017,0.0,105.0,106.0,103.0,13.4,1505.2,325.7,-0.8,1.8,2470.371,13.29,0.024,225.0
2021-04-03T08:46:03,42.805,6.029,-0.013,-0.007,-0.014,105.0,106.0,103.0,13.3,1505.2,323.6,-0.8,1.8,2470.34,13.29,0.014,241.7
2021-04-03T08:49:03,42.805,6.029,-0.023,-0.023,-0.012,105.0,106.0,103.0,13.4,1505.2,323.3,-0.7,1.8,2470.39,13.29,0.032,225.0
2021-04-03T08:52:03,42.805,6.029,-0.017,-0.021,-0.016,107.0,105.0,103.0,13.4,1505.2,324.9,-0.7,1.8,2470.322,13.29,0.027,219.0
2021-04-03T08:55:03,42.805,6.029,-0.008,-0.008,-0.011,105.0,104.0,102.0,13.4,1505.2,323.5,-0.8,1.8,2470.34,13.29,0.011,225.0
2021-04-03T08:58:03,42.805,6.029,-0.031,-0.017,-0.002,106.0,104.0,104.0,13.4,1505.2,324.1,-0.8,1.8,2470.361,13.29,0.035,241.3
2021-04-03T09:04:03,42.805,6.029,-0.024,0.003,0.031,106.0,106.0,104.0,13.4,1505.2,323.8,-0.8,1.8,2470.342,13.28,0.024,277.1
2021-04-03T09:07:03,42.805,6.029,-0.023,-0.021,-0.013,106.0,106.0,103.0,13.4,1505.2,323.5,-0.7,1.8,2470.344,13.28,0.031,227.6
2021-04-03T09:10:03,42.805,6.029,0.0,-0.026,0.038,107.0,106.0,103.0,13.3,1505.2,327.8,-0.8,1.8,2470.346,13.28,0.026,180.0
2021-04-03T09:13:03,42.805,6.029,-0.017,0.006,-0.049,105.0,104.0,104.0,13.4,1505.2,323.5,-0.7,1.8,2470.329,13.28,0.018,289.4
2021-04-03T09:16:03,42.805,6.029,-0.036,0.003,0.014,107.0,106.0,103.0,13.4,1505.2,323.7,-0.8,1.8,2470.368,13.29,0.036,274.8
2021-04-03T09:19:03,42.805,6.029,-0.022,0.013,0.008,107.0,107.0,107.0,13.3,1505.2,325.2,-0.8,1.8,2470.346,13.29,0.025,300.6
2021-04-03T09:22:03,42.805,6.029,-0.031,-0.031,0.0,106.0,107.0,103.0,13.4,1505.2,323.4,-0.8,1.8,2470.356,13.29,0.043,225.0
2021-04-03T09:25:03,42.805,6.029,-0.022,-0.013,-0.005,107.0,107.0,102.0,13.4,1505.2,325.0,-0.7,1.8,2470.394,13.29,0.025,239.4
2021-04-03T09:28:03,42.805,6.029,0.004,0.004,-0.03,107.0,108.0,106.0,13.3,1505.2,326.1,-0.7,1.8,2470.407,13.29,0.005,45.0
2021-04-03T09:31:03,42.805,6.029,-0.013,-0.011,-0.007,106.0,106.0,103.0,13.4,1505.2,325.8,-0.7,1.8,2470.329,13.29,0.017,229.8
2021-04-03T09:34:03,42.805,6.029,-0.014,-0.021,0.0,108.0,106.0,102.0,13.3,1505.2,324.0,-0.8,1.8,2470.385,13.29,0.025,213.7
2021-04-03T09:37:03,42.805,6.029,-0.026,-0.008,0.009,106.0,105.0,104.0,13.3,1505.2,324.0,-0.7,1.8,2470.39,13.29,0.027,252.9
2021-04-03T09:40:03,42.805,6.029,-0.012,-0.015,0.038,105.0,106.0,105.0,13.3,1505.2,326.3,-0.8,1.8,2470.379,13.29,0.019,218.7
2021-04-03T09:43:03,42.805,6.029,-0.037,0.0,-0.026,106.0,106.0,104.0,13.4,1505.2,326.9,-0.7,1.8,2470.395,13.29,0.037,270.0
2021-04-03T09:46:03,42.805,6.029,-0.018,0.003,-0.001,106.0,106.0,103.0,13.4,1505.2,324.2,-0.7,1.8,2470.379,13.29,0.018,279.5
2021-04-03T09:49:03,42.805,6.029,-0.018,-0.008,-0.029,105.0,107.0,102.0,13.4,1505.2,323.6,-0.8,1.8,2470.399,13.29,0.019,246.0
2021-04-03T09:52:03,42.805,6.029,-0.029,0.001,0.002,104.0,108.0,104.0,13.4,1505.2,325.2,-0.7,1.9,2470.375,13.29,0.029,272.0
2021-04-03T09:55:03,42.805,6.029,-0.015,0.022,0.015,107.0,105.0,105.0,13.4,1505.2,324.9,-0.8,1.8,2470.382,13.29,0.026,325.7